Weather in Kruchenaya Balka

Russia / Rostov Oblast     46°24′50″N   41°21′45″E
temp.,
°C
wind,
m/s
gust,
m/s
humid.,
%
clouds,
%
prec.,
mm/h
press.,
hPa
HPBL,
m
28 february, sun
sun2800:00+3wnw3896100 1.0 1014218
03:00+2wnw3597100 1.2 1015158
06:00+2wnw2297100 0.9 101670
09:00+2nnw3589100 0.9 1017336
12:00+3nnw338778 0.0 1017447
15:00+4nw348088 0.1 1017611
18:00+3wnw128198 0.0 101846
21:00+2nw359097 0.1 1020177
1 march, mon
mon100:00+1nw239697 0.0 102184
03:000w239696 0.0 102250
06:00+1w239899 0.1 1023173
09:00+2w348499 0.1 1025496
12:00+2w3482100 0.1 1026493
15:00+3wnw348198 0.5 1026602
18:00+2nw228499 0.3 102724
21:00+1wsw118985 0.3 102822
2 march, tue
tue200:000w229213 0.0 102831
03:000w239147 0.0 102884
06:00−1wsw359129 0.0 1027128
09:00+2wsw687625 0.0 1027573
12:00+5w8116178 0.0 10251268
15:00+5w9136088 0.0 10221303
18:00+2w81569100 0.0 10201023
21:00+1wsw101778100 0.0 1020796
3 march, wed
wed300:00+1w101796100 0.5 1018835
03:00+2wnw71297100 3.6 1018627
06:00+2wnw5109197 0.3 1018505
09:00+2wnw7107265 0.4 10191076
12:00+4wnw796542 0.0 10201192
15:00+5wnw7106363 0.1 10201506
18:00+3nw5107392 0.6 1021650
21:000nw4107759 0.6 1024323
4 march, thu
thu400:000wnw37810 0.0 1025203
03:00−1wnw35820 0.0 1026140
06:00−1w34810 0.0 1027100
09:00+2w35640 0.0 1028407
12:00+5wsw44460 0.0 1027913
15:00+6wsw45460 0.0 10261087
18:00+3sw34620 0.0 102546
21:00+1ssw34670 0.0 102466